Probability
0 0 0 0 0 0 0 0 0 0 0 0 0 0 0 0 0 0 0 0 0 0 0 0 0 0 0 0 0 0 0 0 0 0 0 0 0 0 0 0 0 0 0 0
0 0 0 0 0 0 0 0 0 0 0 0 0 0 0 0 0 0 0 0 0 0 0 0 0 0 0 0 0 0 0 0 0 0 0 0 0 0 0 0 0 0 0 0
0 0 0 0 0 0 0 0 0 0 0 0 0 0 0 0 0 0 0 0 0 0 0 0 0 0 0 0 0 0 0 0 0 0 0 0 0 0 0 0 0 0 0 0
0 0 0 0 0 0 0 0 0 0 0 0 0 0 0 0 0 0 0 0 0 0 0 0 0 0 0 0 0 0 0 0 0 0 0 0 0 0 0 0 0 0 0 0
0 0 0 0 0 0 0 0 0 0 0 0 0 0 0 0 0 0 0 0 0 0 0 0 0 0 0 0 0 0 0 0 0 0 0 0 0 0 0 0 0 0 0 0
0 0 0 0 0 0 0 0 0 0 0 0 0 0 0 0 0 0 0 0 0 0 0 0 0 0 0 0 0 0 0 0 0 0 0 0 0 0 0 0 0 0 0 0
0 0 0 0 0 0 0 0 0 0 0 0 0 0 0 0 0 0 0 0 0 0 0 0 0 0 0 0 0 0 0 0 0 0 0 0 0 0 0 0 0 0 0 0
0 0 0 0 0 0 0 0 0 0 0 0 0 0 0 0 0 0 0 0 0 0 0 0 0 0 0 0 0 0 0 0 0 0 0 0 0 0 0 0 0 0 0 0
0 0 0 0 0 0 0 0 0 0 0 0 0 0 0 0 0 0 0 0 0 0 0 0 0 0 0 0 0 0 0 0 0 0 0 0 0 0 0 0 0 0 0 0
0 0 0 0 0 0 0 0 0 0 0 0 0 0 0 0 0 0 0 0 0 0 0 0 0 0 0 0 0 0 0 0 0 0 0 0 0 0 0 0 0 0 0 0
0 0 0 0 0 0 0 0 0 0 0 0 0 0 0 0 0 0 0 0 0 0 0 0 0 0 0 0 0 0 0 0 0 0 0 0 0 0 0 0 0 0 0 0
0 0 0 0 0 0 0 0 0 0 0 0 0 0 0 0 0 0 0 0 0 0 0 0 0 0 0 0 0 0 0 0 0 0 0 0 0 0 0 0 0 0 0 0
0 0 0 0 0 0 0 0 0 0 0 0 0 0 0 0 0 0 0 0 0 0 0 0 0 0 0 0 0 0 0 0 0 0 0 0 0 0 0 0 0 0 0 0
0 0 0 0 0 0 0 0 0 0 0 0 0 0 0 0 0 0 0 0 0 0 0 0 0 0 0 0 0 0 0 0 0 0 0 0 0 0 0 0 0 0 0 0
0 0 0 0 0 0 0 0 0 0 0 0 0 0 0 0 0 0 0 0 0 0 0 0 0 0 0 0 0 0 0 0 0 0 0 0 0 0 0 0 0 0 0 0
0 0 0 0 0 0 0 0 0 0 0 0 0 0 0 0 0 0 0 0 0 0 0 0 0 0 0 0 0 0 0 0 0 0 0 0 0 0 0 0 0 0 0 0
0 0 0 0 0 0 0 0 0 0 0 0 0 0 0 0 0 0 0 0 0 0 0 0 0 0 0 0 0 0 0 0 0 0 0 0 0 0 0 0 0 0 0 0
0 0 0 0 0 0 0 0 0 0 0 0 0 0 0 0 0 0 0 0 0 0 0 0 0 0 0 0 0 0 0 0 0 0 0 0 0 0 0 0 0 0 0 0
0 0 0 0 0 0 0 0 0 0 0 0 0 0 0 0 0 0 0 0 0 0 0 0 0 0 0 0 0 0 0 0 0 0 0 0 0 0 0 0 0 0 0 0
0 0 0 0 0 0 0 0 0 0 0 0 0 0 0 0 0 0 0 0 0 0 0 0 0 0 0 0 0 0 0 0 0 0 0 0 0 0 0 0 0 0 0 0
0 0 0 0 0 0 0 0 0 0 0 0 0 0 0 0 0 0 0 0 0 0 0 0 0 0 0 0 0 0 0 0 0 0 0 0 0 0 0 0 0 0 0 0
0 0 0 0 0 0 0 0 0 0 0 0 0 0 0 0 0 0 0 0 0 0 0 0 0 0 0 0 0 0 0 0 0 0 0 0 0 0 0 0 0 0 0 0
0 0 0 0 0 0 0 0 0 0 0 0 0 0 0 0 0 0 0 0 0 0 0 0 0 0 0 0 0 0 0 0 0 0 0 0 0 0 0 0 0 0 0 0
0 0 0 0 0 0 0 0 0 0 0 0 0 0 0 0 0 0 0 0 0 0 0 0 0 0 0 0 0 0 0 0 0 0 0 0 0 0 0 0 0 0 0 0
0 0 0 0 0 0 0 0 0 0 0 0 0 0 0 0 0 0 0 0 0 0 0 0 0 0 0 0 0 0 0 0 0 0 0 0 0 0 0 0 0 0 0 0
0 0 0 0 0 0 0 0 0 0 0 0 0 0 0 0 0 0 0 0 0 0 0 0 0 0 0 0 0 0 0 0 0 0 0 0 0 0 0 0 0 0 0 0
0 0 0 0 0 0 0 0 0 0 0 0 0 0 0 0 0 0 0 0 0 0 0 0 0 0 0 0 0 0 0 0 0 0 0 0 0 0 0 0 0 0 0 0
Wind_Speed
8 7 4 6 6 6 8 8 9 9 9 11 7 6 5 4 4 3 4 4 3 4 4 5 5 5 4 3 3 3 2 2 2 2 2 2 2 2 2 2 2 2 3 3
5 4 5 7 8 9 10 9 10 10 12 8 6 3 3 4 4 3 4 4 4 4 4 5 5 5 4 4 4 3 2 3 3 2 2 2 2 1 1 1 1 1 2 3
4 3 2 8 9 9 7 6 7 11 10 4 3 4 5 5 4 4 4 4 4 4 4 5 5 5 4 4 4 3 3 3 3 2 2 2 2 2 2 2 2 2 2 3
2 1 7 9 2 5 6 6 5 5 5 4 5 5 4 4 4 4 4 4 4 4 5 5 4 4 4 3 3 3 3 4 4 3 2 2 2 2 2 2 3 3 3 3
2 4 8 6 3 3 5 7 5 6 6 5 3 3 4 3 3 4 4 4 4 4 4 4 4 4 4 3 3 3 4 4 4 3 3 2 3 3 2 2 2 2 3 3
3 3 8 6 2 0 2 6 4 4 5 4 1 2 5 3 3 3 3 3 3 4 4 4 4 3 3 3 3 4 4 5 4 3 3 3 3 3 2 2 2 2 2 2
5 6 9 5 1 3 3 8 3 3 4 4 4 6 5 3 3 3 3 3 3 3 3 4 4 3 3 4 4 4 5 5 4 3 3 3 2 2 2 2 2 2 2 2
5 6 10 2 4 6 7 3 2 3 3 4 5 5 4 4 4 3 4 4 3 3 4 4 3 3 4 5 5 4 4 4 4 3 3 2 2 2 2 2 2 2 2 2
8 8 4 3 5 4 2 2 3 3 4 4 4 5 4 4 4 4 4 4 3 3 4 4 3 3 4 5 4 4 4 4 3 3 2 2 2 2 2 2 2 2 2 2
5 7 5 4 4 3 2 4 4 4 4 4 4 5 5 4 4 4 4 3 3 3 4 5 4 4 4 5 4 3 3 3 3 2 1 1 1 1 2 2 3 3 3 3
6 6 4 4 5 5 4 4 4 4 4 4 4 5 4 4 4 4 4 3 3 3 4 5 5 5 5 4 3 3 3 3 2 2 1 1 1 2 2 2 3 3 3 3
7 5 5 5 3 3 4 4 4 4 3 3 3 4 4 4 4 3 3 3 3 3 4 4 4 5 4 3 2 2 2 2 2 1 1 1 1 2 3 2 3 3 3 3
5 4 4 4 3 2 3 4 4 3 4 4 3 3 3 3 3 3 3 3 3 4 4 4 4 4 4 3 2 2 2 2 2 1 1 1 1 1 1 2 2 2 2 2
3 2 3 3 3 3 3 3 3 2 2 2 3 3 2 2 2 3 3 4 3 3 3 3 3 4 4 3 2 2 2 2 2 1 1 1 1 1 1 1 1 2 2 3
3 3 4 3 3 3 2 2 2 2 3 2 2 2 2 2 3 4 3 3 3 2 3 3 4 5 4 2 2 2 2 1 1 1 1 1 1 1 1 1 1 1 1 2
3 2 2 2 3 3 2 2 2 3 3 3 3 3 3 3 3 3 3 2 2 3 3 3 4 5 4 2 2 2 1 3 2 1 1 1 1 1 1 1 1 1 1 2
1 2 3 3 4 4 3 3 3 3 3 3 3 3 2 2 3 3 3 2 2 3 3 3 4 4 3 2 2 1 1 2 3 1 1 1 1 1 1 1 1 1 1 2
3 4 3 4 4 4 3 3 2 3 3 3 3 2 2 2 3 3 4 3 3 3 4 4 3 3 3 2 2 1 1 1 1 1 1 1 1 1 1 1 1 1 2 2
2 2 2 2 2 2 3 3 3 3 3 2 2 2 3 3 3 3 3 3 3 4 4 4 5 3 2 3 2 1 1 1 1 1 1 2 2 1 1 1 1 1 1 1
1 1 1 1 2 2 2 3 3 3 2 2 2 2 2 3 3 2 2 3 3 3 4 4 4 3 3 3 3 1 1 2 2 1 1 1 1 1 2 2 2 2 2 2
1 1 1 1 2 2 2 2 2 2 2 2 1 2 3 3 3 2 2 3 4 4 4 5 3 3 3 3 3 1 1 1 2 2 2 1 2 2 2 2 2 2 2 2
1 1 1 1 1 2 2 2 1 2 2 2 2 2 2 3 3 3 3 3 4 6 4 3 3 5 5 4 1 1 2 2 2 2 2 2 2 2 2 2 3 3 3 3
1 1 1 1 1 2 2 2 2 1 2 2 2 2 3 3 3 2 4 3 3 6 4 3 5 8 6 2 1 2 2 2 2 2 2 3 3 3 3 3 3 3 3 3
1 1 1 1 1 1 2 3 3 2 2 2 2 2 2 3 3 2 3 6 8 7 4 5 8 8 5 2 2 2 2 2 3 3 3 3 3 3 3 3 4 3 4 4
0 1 1 1 1 1 2 2 2 2 2 2 3 3 2 2 3 3 3 4 7 6 4 6 8 7 3 2 2 2 3 3 3 3 3 3 3 3 3 4 4 4 4 4
0 1 1 1 1 1 1 1 2 2 2 3 3 3 3 2 3 3 3 4 5 6 4 3 4 5 3 3 3 3 3 4 4 3 3 3 4 4 4 4 5 5 5 5
0 1 1 1 1 1 1 1 2 3 3 3 4 3 3 3 3 3 4 4 4 4 4 3 3 3 3 3 4 4 3 3 4 4 4 4 4 4 4 5 5 5 5 5
Wind_Direction
251 260 230 235 244 216 208 212 219 245 248 265 269 263 266 272 282 298 311 318 326 326 323 327 329 328 321 314 321 322 319 297 274 275 277 261 246 232 227 219 219 209 205 204
269 256 240 262 257 233 232 233 240 259 269 271 275 275 274 272 267 279 291 300 312 317 319 319 320 321 325 327 323 321 309 297 291 282 279 268 250 229 219 217 215 200 203 200
261 289 322 267 243 223 219 216 213 237 253 278 282 266 259 262 255 259 269 286 299 301 302 307 306 309 310 312 321 318 308 306 307 296 289 292 278 246 224 217 209 205 209 201
250 58 240 244 213 208 218 235 225 244 272 266 258 265 266 257 249 259 276 288 293 294 298 301 299 305 306 314 319 314 309 307 305 297 283 282 272 244 231 224 214 213 219 212
190 235 269 281 253 189 207 257 226 234 265 290 312 325 292 271 255 259 269 277 283 288 292 300 303 306 308 314 315 314 307 300 297 291 284 273 262 251 236 226 223 223 221 211
185 215 246 253 260 170 108 272 248 216 240 266 327 279 270 272 274 278 286 292 295 300 303 306 308 313 308 304 304 301 298 295 294 288 273 264 257 253 243 231 229 232 235 221
212 233 259 258 258 120 179 257 267 210 220 224 223 238 264 279 284 283 285 292 301 302 300 299 306 310 300 299 291 293 297 299 298 286 269 263 264 253 231 227 220 223 228 238
194 224 253 221 138 185 228 270 242 231 234 238 249 264 273 279 282 289 296 300 302 300 299 303 304 299 294 290 293 302 301 298 293 283 275 268 252 249 228 212 207 220 218 233
201 221 244 184 198 230 242 245 255 250 260 249 258 266 273 276 277 284 287 289 295 294 299 305 302 290 285 291 302 305 303 298 292 289 279 265 233 228 219 212 211 217 213 223
243 257 255 245 248 271 257 247 260 259 262 254 254 262 271 273 277 282 283 281 286 290 295 302 305 297 282 292 300 300 299 303 305 299 292 284 262 232 217 214 216 221 218 223
246 267 290 261 244 251 260 263 271 278 266 247 245 261 262 268 270 271 277 280 275 272 279 288 302 300 296 298 303 303 302 305 310 310 298 294 280 255 243 236 228 221 219 220
234 235 230 255 259 251 251 261 264 267 273 275 255 260 267 269 270 272 279 285 287 282 283 289 299 300 303 304 297 296 299 305 307 314 309 300 297 313 308 288 281 266 254 244
243 268 251 267 283 281 259 271 277 263 258 271 273 264 266 272 278 284 290 288 280 280 284 291 298 302 308 312 303 288 282 289 291 295 289 289 280 273 303 326 323 315 297 273
266 280 278 277 278 290 282 283 282 287 285 276 276 282 277 280 291 291 286 283 285 294 297 298 302 302 306 309 303 296 290 289 288 276 271 270 268 270 267 282 309 313 315 307
281 269 255 279 295 306 307 306 309 307 308 309 304 296 288 286 286 289 295 302 311 312 308 308 307 306 312 309 302 296 295 290 285 280 275 268 264 258 254 263 272 292 316 310
300 310 297 289 286 296 304 297 284 288 298 305 306 300 292 288 294 307 317 322 317 306 306 306 303 306 314 311 301 300 293 293 290 278 273 274 264 254 256 266 285 297 300 302
263 286 291 292 292 293 287 277 269 277 287 289 290 300 313 321 325 323 321 317 301 296 299 297 298 308 313 306 295 295 299 302 306 307 294 276 270 261 255 250 256 277 292 293
229 243 251 259 269 278 287 290 285 284 282 284 296 307 307 300 294 299 307 316 321 320 313 303 300 306 315 314 300 295 298 301 305 304 301 293 282 266 255 249 251 261 293 303
264 266 278 286 283 273 278 284 287 286 286 287 287 284 282 282 284 293 306 319 320 313 311 311 316 330 320 309 307 290 288 290 293 294 290 290 305 302 276 261 261 266 271 284
323 323 321 324 324 303 295 299 300 299 295 285 278 287 295 296 296 299 302 297 286 279 291 304 309 308 302 300 304 285 271 271 276 284 286 278 280 286 286 278 269 268 269 269
326 336 336 332 328 324 311 306 304 306 313 308 281 278 285 297 302 299 301 302 303 302 303 311 317 302 293 288 292 278 268 267 270 271 272 269 271 271 276 278 276 273 272 272
317 315 314 319 326 327 327 323 313 315 326 328 321 310 307 311 314 305 283 277 295 311 315 303 296 295 300 297 273 261 260 260 260 258 257 258 260 263 266 268 268 269 268 268
295 292 301 306 306 314 330 335 328 322 315 312 307 302 296 293 296 296 298 298 296 306 312 294 298 305 315 320 290 268 260 258 259 258 254 252 252 255 259 261 262 263 262 264
297 313 315 323 347 351 337 332 331 327 315 308 302 297 296 302 301 288 278 301 310 312 311 307 312 316 329 328 304 284 274 271 266 262 258 254 251 252 255 257 259 260 259 260
288 305 322 348 338 314 310 319 329 329 325 318 314 316 307 294 290 299 302 301 309 318 315 312 315 319 324 303 294 286 279 269 262 259 254 258 258 255 255 256 255 259 261 259
284 290 292 293 297 305 312 317 316 315 319 318 316 313 308 302 295 296 299 300 302 311 310 300 303 308 301 291 284 281 278 285 293 286 269 264 261 258 257 257 258 257 259 259
1 353 339 333 330 324 318 313 308 309 309 301 302 307 312 312 309 307 304 301 301 301 297 294 293 290 288 286 283 280 276 273 270 269 267 262 260 259 260 260 260 260 260 260